SERIAL,TIME,MODEL,SN(OPTODE),OXYGEN,SATURATION,TEMPERATURE,CALPHASE,TCPHASE,C1RPH,C2RPH,C1AMP,C2AMP,RAWTEMP,CHECK
7,1448746852,4330,1171,239.6752014160156200,62.3988189697265600,6.4427409172058105,36.2775497436523440,37.4824790954589840,39.5523796081543000,2.0699009895324707,1059.5789794921875000,1070.0080566406250000,678.5540771484375000,61456
7,1448753423,4330,1171,247.8605041503906200,64.1288299560546900,6.1953392028808590,36.0038185119628900,37.2124099731445300,39.0909881591796900,1.8785779476165771,1049.8530273437500000,1073.8160400390625000,685.9188232421875000,26997
7,1448757023,4330,1171,249.5467071533203000,64.5097427368164000,6.1613640785217285,35.9396591186523440,37.1491012573242200,39.0099182128906250,1.8608169555664062,1047.8409423828125000,1074.3459472656250000,686.9285278320312000,31696
7,1448760623,4330,1171,250.6271972656250000,64.6827163696289000,6.0963940620422360,35.9238586425781250,37.1335105895996100,38.9804191589355500,1.8469090461730957,1047.4510498046875000,1075.3160400390625000,688.8585205078125000,15064
7,1448764223,4330,1171,250.5695953369140600,64.6784973144531200,6.1028938293457030,35.9227981567382800,37.1324691772460940,38.9698600769043000,1.8373949527740479,1047.5240478515625000,1075.1300048828125000,688.6655273437500000,47063
7,1448767823,4330,1171,251.1553955078125000,64.7930297851562500,6.0805468559265140,35.9069404602050800,37.1168212890625000,38.9449501037597660,1.8281250000000000,1047.0119628906250000,1075.5419921875000000,689.3289794921875000,47274
7,1448771423,4330,1171,253.3773040771484400,65.2655792236328100,6.0196928977966310,35.8335800170898440,37.0444412231445300,38.8637809753418000,1.8193440437316895,1044.5729980468750000,1076.4780273437500000,691.1350708007812000,42672
7,1448775023,4330,1171,254.4730072021484400,65.4769973754882800,5.9770150184631350,35.8044509887695300,37.0157012939453100,38.8267402648925800,1.8110350370407104,1043.5489501953125000,1077.0649414062500000,692.4011230468750000,30560
7,1448778623,4330,1171,255.6479949951172000,65.7366561889648400,5.9514331817626950,35.7623405456543000,36.9741516113281250,38.7816314697265600,1.8074799776077270,1042.1619873046875000,1077.4749755859375000,693.1596069335938000,25694
7,1448782223,4330,1171,255.7940063476562500,65.7596969604492200,5.9427189826965330,35.7605895996093750,36.9724311828613300,38.7745780944824200,1.8021550178527832,1042.4310302734375000,1077.7469482421875000,693.4180297851562000,62508
7,1448785823,4330,1171,256.1184082031250000,65.8337478637695300,5.9371452331542970,35.7479209899902340,36.9599189758300800,38.7570610046386700,1.7971420288085938,1041.6910400390625000,1077.6679687500000000,693.5831909179688000,447
7,1448793023,4330,1171,256.4354858398437500,65.9086608886718800,5.9332098960876465,35.7347602844238300,36.9469490051269500,38.7371711730957000,1.7902220487594604,1041.3730468750000000,1077.7020263671875000,693.6998291015625000,24153
7,1448800223,4330,1171,256.1488952636719000,65.8366165161132800,5.9341740608215330,35.7479591369628900,36.9599609375000000,38.7428894042968750,1.7829279899597168,1041.6879882812500000,1077.7039794921875000,693.6713256835938000,7908
7,1448801037,4330,1171,256.3464050292969000,65.8842773437500000,5.9323158264160160,35.7395706176757800,36.9516792297363300,38.7406311035156250,1.7889480590820312,1041.3199462890625000,1077.8349609375000000,693.7263183593750000,3872
7,1448801453,4330,1171,251.3162994384765600,64.9082412719726600,6.1254458427429200,35.8732795715332000,37.0836105346679700,38.8810310363769500,1.7974170446395874,1046.0159912109375000,1075.4210205078125000,687.9957275390625000,42097
7,1448801941,4330,1171,240.8798065185547000,62.7855415344238300,6.4891109466552730,36.1891098022460940,37.3952217102050800,39.2177886962890600,1.8225710391998290,1056.9709472656250000,1070.7230224609375000,677.1715698242188000,45655
7,1448802545,4330,1171,230.1042938232422000,60.6038703918457000,6.9047298431396480,36.5189285278320300,37.7206306457519500,39.5852088928222660,1.8645709753036500,1068.2180175781250000,1064.9799804687500000,664.7484741210938000,49768
7,1448803110,4330,1171,220.0482025146484400,58.4753913879394500,7.2642140388488770,36.8704109191894500,38.0674285888671900,39.9742317199707000,1.9067989587783813,1080.2619628906250000,1059.5810546875000000,653.9586181640625000,35962
7,1448803698,4330,1171,205.9720001220703000,55.5276794433593750,7.8479900360107420,37.3642692565918000,38.5546913146972660,40.5170593261718750,1.9623719453811646,1096.9639892578125000,1052.0989990234375000,636.3496704101562000,14193
7,1448804256,4330,1171,195.2225952148437500,53.2246284484863300,8.3084735870361330,37.7750511169433600,38.9599800109863300,40.9692993164062500,2.0093150138854980,1110.8489990234375000,1045.7810058593750000,622.3853759765625000,31959
7,1448804853,4330,1171,186.2884063720703000,51.5457000732421900,8.9203872680664060,38.0201911926269500,39.2018394470214840,41.2614402770996100,2.0596010684967040,1118.5159912109375000,1038.0209960937500000,603.7299194335938000,57050
7,1448805445,4330,1171,186.4705047607422000,52.6480789184570300,9.7663078308105470,37.5418815612793000,38.7299308776855500,40.8662414550781250,2.1363139152526855,1100.2629394531250000,1025.7320556640625000,577.7600708007812000,62362
7,1448806007,4330,1171,189.8842926025390600,54.6649894714355500,10.5937004089355470,36.8678588867187500,38.0648994445800800,40.2562408447265600,2.1913380622863770,1075.5040283203125000,1015.4990234375000000,552.1655883789062000,10570
7,1448806559,4330,1171,197.6920013427734400,57.6459388732910160,11.1448602676391600,36.0734901428222660,37.2811508178710940,39.5068206787109400,2.2256700992584230,1047.1130371093750000,1007.6690063476562000,535.0145263671875000,18879
7,1448807139,4330,1171,202.0068054199218800,59.9952812194824200,11.9445896148681640,35.3865203857421900,36.6033515930175800,38.8791809082031250,2.2758328914642334,1021.6220092773438000,997.0839843750000000,509.9920959472656000,7424
7,1448807739,4330,1171,209.4022064208984400,63.2290382385253900,12.6749801635742190,34.5687713623046900,35.7965202331543000,38.1117706298828100,2.3152470588684080,991.5969848632812000,987.8120117187500000,487.0061035156250000,59409
7,1448808290,4330,1171,218.7286987304687500,67.3030624389648400,13.5194797515869140,33.6139907836914060,34.8544998168945300,37.2127914428710940,2.3582921028137207,956.2003784179688000,977.1251831054688000,460.2811889648437500,49938
7,1448809314,4330,1171,236.6085968017578000,74.5658035278320300,14.6071300506591800,32.1445312500000000,33.4046592712402340,35.8183212280273440,2.4136579036712646,902.3278808593750000,962.0723266601562000,425.6512145996094000,35406
7,1448809335,4330,1171,236.7295074462890600,74.6428909301757800,14.6311302185058600,32.1267395019531250,33.3871116638183600,35.8041305541992200,2.4170229434967040,901.5819702148438000,961.3380126953125000,424.8844909667969000,7133
7,1448809364,4330,1171,237.0724945068359400,74.7831192016601600,14.6508502960205080,32.1001510620117200,33.3608818054199200,35.7775192260742200,2.4166409969329834,900.5294799804688000,961.0493774414062000,424.2544860839844000,19378
7,1448809385,4330,1171,237.2718963623047000,74.8902816772461000,14.6780500411987300,32.0775299072265600,33.3385505676269500,35.7575798034668000,2.4190220832824707,899.8233032226562000,960.3713989257812000,423.3855895996094000,46344
7,1448809409,4330,1171,237.4586944580078000,74.9987564086914000,14.7084102630615230,32.0535316467285160,33.3148689270019500,35.7341804504394500,2.4193038940429688,898.8364868164062000,960.0905761718750000,422.4153137207031000,26318
7,1448809430,4330,1171,237.5798950195312500,75.0752410888671900,14.7318401336669920,32.0362396240234400,33.2978096008300800,35.7180099487304700,2.4201970100402830,898.0933227539062000,959.4680175781250000,421.6665954589844000,58921
7,1448809451,4330,1171,237.7742004394531200,75.1688385009765600,14.7515602111816400,32.0172691345214840,33.2790985107421900,35.7010192871093750,2.4219210147857666,897.3380126953125000,959.1320190429688000,421.0361938476562500,7394
7,1448809472,4330,1171,238.0211029052734400,75.2610092163086000,14.7601900100708000,32.0008201599121100,33.2628707885742200,35.6849517822265600,2.4220809936523438,896.5883789062500000,958.6107788085938000,420.7604064941406000,5311
7,1448809493,4330,1171,238.2682037353515600,75.3556518554687500,14.7702903747558600,31.9839897155761720,33.2462692260742200,35.6676406860351560,2.4213709831237793,896.0167846679688000,958.4036254882812000,420.4374084472656000,3056
7,1448809515,4330,1171,238.5675964355468800,75.4651031494140600,14.7792901992797850,31.9648799896240230,33.2274093627929700,35.6487083435058600,2.4213030338287354,895.3187866210938000,958.2438964843750000,420.1496887207031000,19296
7,1448809538,4330,1171,239.0061035156250000,75.6054687500000000,14.7803001403808600,31.9430103302001950,33.2058296203613300,35.6279411315918000,2.4221038818359375,894.6022949218750000,958.3953247070312000,420.1174926757812500,50443
7,1448809559,4330,1171,239.4293060302734400,75.7413864135742200,14.7815599441528320,31.9215507507324220,33.1846504211425800,35.6075515747070300,2.4228971004486084,893.8054199218750000,958.0078125000000000,420.0770874023437500,4198
7,1448809580,4330,1171,239.8018951416015600,75.8602600097656200,14.7821598052978520,31.9028205871582030,33.1661796569824200,35.5870018005371100,2.4208219051361084,893.1287841796875000,957.9467773437500000,420.0578002929687500,43330
7,1448809609,4330,1171,240.2169036865234400,76.0563964843750000,14.8214902877807620,31.8640003204345700,33.1278800964355500,35.5467109680175800,2.4188389778137207,891.7584838867188000,958.1160888671875000,418.8005065917969000,38854
7,1448809631,4330,1171,240.2899932861328000,76.1625137329101600,14.8717403411865230,31.8363399505615230,33.1005897521972660,35.5193290710449200,2.4187390804290770,890.8278198242188000,957.7990722656250000,417.1935119628906000,33817
7,1448809652,4330,1171,240.3247070312500000,76.2067108154296900,14.8918399810791020,31.8249702453613280,33.0893592834472660,35.5083503723144500,2.4189910888671875,890.3026733398438000,957.3585205078125000,416.5504150390625000,4021
7,1448809675,4330,1171,240.7718048095703000,76.3737335205078100,14.9070997238159180,31.7958793640136720,33.0606613159179700,35.4805793762207000,2.4199221134185790,889.1577148437500000,957.0526123046875000,416.0622863769531000,18650
7,1448809696,4330,1171,240.9806060791015600,76.4633636474609400,14.9212198257446290,31.7788696289062500,33.0438804626464840,35.4648399353027340,2.4209520816802980,888.5883789062500000,956.7211303710938000,415.6104125976562500,54889
7,1448809717,4330,1171,241.1499023437500000,76.5226135253906200,14.9245796203613280,31.7695693969726560,33.0347099304199200,35.4553184509277340,2.4206159114837646,888.1677856445312000,956.4249267578125000,415.5028076171875000,38657
7,1448809739,4330,1171,241.3271942138672000,76.5905532836914000,14.9316101074218750,31.7572307586669920,33.0225410461425800,35.4417610168457000,2.4192280769348145,887.6901855468750000,956.3784179687500000,415.2780151367187500,3207
7,1448809760,4330,1171,241.3426971435547000,76.6688537597656200,14.9758701324462890,31.7358703613281250,33.0014610290527340,35.4209709167480500,2.4195098876953125,886.9755249023438000,956.1768188476562000,413.8617858886719000,48359
7,1448809781,4330,1171,241.4501037597656200,76.7310562133789000,14.9927902221679690,31.7224197387695300,32.9881782531738300,35.4090805053710940,2.4208979606628420,886.4752197265625000,955.7854003906250000,413.3200988769531000,13772
7,1448809804,4330,1171,241.3769989013672000,76.7477111816406200,15.0167999267578120,31.7146892547607420,32.9805603027343750,35.4025688171386700,2.4220049381256104,886.0405883789062000,955.5639038085938000,412.5515136718750000,6022
7,1448809825,4330,1171,240.9969024658203000,76.7038574218750000,15.0633096694946290,31.7109603881835940,32.9768791198730500,35.3986701965332000,2.4217910766601562,885.9207763671875000,955.1555786132812000,411.0628051757812500,12393
7,1448809847,4330,1171,240.1587066650390600,76.5245437622070300,15.1162300109863280,31.7268600463867200,32.9925689697265600,35.4155616760253900,2.4229888916015625,886.5161743164062000,954.8964843750000000,409.3681945800781000,29557
7,1448809868,4330,1171,239.5442047119140600,76.3522872924804700,15.1305599212646480,31.7500801086425780,33.0154800415039060,35.4401588439941400,2.4246749877929688,887.2227172851562000,954.3450927734375000,408.9092102050781000,16676
7,1448809889,4330,1171,238.9992065429687500,76.2153091430664000,15.1528902053833000,31.7663307189941400,33.0315208435058600,35.4546813964843750,2.4231638908386230,887.7393798828125000,953.8286132812500000,408.1937866210937500,36395
7,1448809910,4330,1171,238.9035034179687500,76.2068634033203100,15.1663303375244140,31.7647304534912100,33.0299301147460940,35.4563484191894500,2.4264221191406250,887.7440185546875000,953.6065063476562000,407.7633056640625000,18105
7,1448809933,4330,1171,238.9996948242187500,76.2487335205078100,15.1731395721435550,31.7567901611328120,33.0220909118652340,35.4496498107910160,2.4275588989257812,887.3104248046875000,953.4940795898438000,407.5451965332031000,1633
7,1448809955,4330,1171,239.1649932861328000,76.3252182006836000,15.1875600814819340,31.7416591644287100,33.0071716308593750,35.4355812072753900,2.4284060001373290,886.8018188476562000,953.3040771484375000,407.0831909179687500,19720
7,1448809976,4330,1171,239.4102935791015600,76.4214096069336000,15.1984300613403320,31.7244205474853500,32.9901618957519500,35.4187393188476560,2.4285809993743896,886.2529907226562000,953.1193237304688000,406.7349853515625000,19493
7,1448809997,4330,1171,239.7402954101562500,76.5565338134765600,15.2164897918701170,31.7001094818115230,32.9661788940429700,35.3930206298828100,2.4268419742584230,885.2235717773438000,952.8137207031250000,406.1561889648437500,62744
7,1448810018,4330,1171,239.8246002197265600,76.6516418457031200,15.2578001022338870,31.6763992309570300,32.9427795410156250,35.3706588745117200,2.4278790950775146,884.3732910156250000,952.5800170898438000,404.8323974609375000,17385
7,1448810039,4330,1171,239.8489990234375000,76.6953277587890600,15.2795400619506840,31.6646709442138670,32.9312095642089840,35.3596801757812500,2.4284739494323730,883.8601074218750000,952.2813720703125000,404.1355895996094000,35991
7,1448810063,4330,1171,240.5805969238281200,76.8813171386718800,15.2505702972412110,31.6428604125976560,32.9096908569335940,35.3395805358886700,2.4298861026763916,883.1425170898438000,952.3981933593750000,405.0642089843750000,2794
7,1448810092,4330,1171,241.4131011962890600,77.2173309326171900,15.2926998138427730,31.5827598571777340,32.8503990173339840,35.2804794311523440,2.4300839900970460,881.0272827148438000,952.3081054687500000,403.7138061523437500,29517
7,1448810113,4330,1171,241.5988006591797000,77.3551864624023400,15.3398599624633790,31.5514907836914060,32.8195381164550800,35.2489204406738300,2.4293749332427980,879.8602905273438000,951.9083862304688000,402.2019958496094000,18918
7,1448810134,4330,1171,241.7597045898437500,77.4759674072265600,15.3814802169799800,31.5240306854248050,32.7924499511718750,35.2214202880859400,2.4289700984954834,878.8287963867188000,951.3770141601562000,400.8676147460937500,54198
7,1448810155,4330,1171,241.8733062744140600,77.5427093505859400,15.3996896743774410,31.5102500915527340,32.7788505554199200,35.2095985412597660,2.4307479858398438,878.1840209960938000,950.9277954101562000,400.2835083007812500,31547
7,1448810177,4330,1171,241.9320983886718800,77.6038970947265600,15.4250898361206050,31.4953308105468750,32.7641296386718750,35.1962013244628900,2.4320681095123290,877.6198120117188000,950.7243041992188000,399.4689025878906000,52936
7,1448810200,4330,1171,241.9564056396484400,77.6315612792968800,15.4370298385620120,31.4883499145507800,32.7572402954101560,35.1917991638183600,2.4345550537109375,877.4619140625000000,950.5361938476562000,399.0859069824219000,64710
7,1448810221,4330,1171,241.7667999267578000,77.6003875732421900,15.4548397064208980,31.4893302917480470,32.7582092285156250,35.1926689147949200,2.4344561100006104,877.2744140625000000,949.9910888671875000,398.5144042968750000,38104
7,1448810242,4330,1171,241.7176055908203000,77.5968017578125000,15.4621601104736330,31.4881706237792970,32.7570610046386700,35.1942481994628900,2.4371869564056396,877.3427124023438000,949.8750000000000000,398.2795104980469000,17792
7,1448810263,4330,1171,241.5204010009765600,77.5567474365234400,15.4761295318603520,31.4913291931152340,32.7601890563964840,35.1969909667968750,2.4368059635162354,877.4409179687500000,949.7672729492188000,397.8315124511719000,6869
7,1448810285,4330,1171,241.2431945800781200,77.4774169921875000,15.4819602966308600,31.5017204284667970,32.7704315185546900,35.2066688537597660,2.4362339973449707,877.6118164062500000,949.4028930664062000,397.6445007324219000,8086
7,1448810314,4330,1171,241.6385955810547000,77.5527267456054700,15.4509201049804690,31.4972896575927730,32.7660713195800800,35.2028007507324200,2.4367289543151855,877.6245117187500000,949.7125854492188000,398.6400146484375000,10377
7,1448810337,4330,1171,242.2400054931640600,77.7264328002929700,15.4393196105957030,31.4737205505371100,32.7428092956543000,35.1795310974121100,2.4367289543151855,876.9591064453125000,949.7750854492188000,399.0123901367187500,55596
7,1448810358,4330,1171,242.4595031738281200,77.8223571777343800,15.4546203613281250,31.4559307098388670,32.7252616882324200,35.1593894958496100,2.4341349601745605,876.2440795898438000,949.6472778320312000,398.5215148925781000,16809
7,1448810379,4330,1171,242.6457061767578000,77.8970565795898400,15.4635496139526370,31.4429607391357420,32.7124595642089840,35.1444511413574200,2.4319989681243896,875.7791137695312000,949.6110229492188000,398.2351989746094000,16510
7,1448810409,4330,1171,242.5617980957031200,77.9267120361328100,15.4974098205566400,31.4309806823730470,32.7006492614746100,35.1318397521972660,2.4311978816986084,875.2592163085938000,949.8096923828125000,397.1487121582031000,36095
7,1448810430,4330,1171,242.5923004150390600,77.9353408813476600,15.4967203140258790,31.4298400878906250,32.6995201110839840,35.1322898864746100,2.4327769279479980,875.2595825195312000,949.5037841796875000,397.1708984375000000,59201
7,1448810451,4330,1171,242.6307067871093800,77.9508209228515600,15.4986000061035160,31.4270591735839840,32.6967697143554700,35.1295318603515600,2.4327619075775146,875.1278076171875000,949.2836303710938000,397.1104125976562500,23464
7,1448810474,4330,1171,242.6479949951172000,77.9614028930664000,15.5015897750854500,31.4250907897949220,32.6948204040527340,35.1262397766113300,2.4314119815826416,875.1118774414062000,949.3104858398438000,397.0145874023437500,42024
7,1448810503,4330,1171,242.7575073242187500,78.0014266967773400,15.5044898986816400,31.4184093475341800,32.6882400512695300,35.1191787719726560,2.4309389591217040,874.9412231445312000,949.4395141601562000,396.9213867187500000,36108
7,1448810525,4330,1171,242.7406005859375000,78.0154876708984400,15.5161504745483400,31.4136791229248050,32.6835708618164060,35.1127204895019500,2.4291529655456543,874.7667236328125000,949.3651733398438000,396.5473022460937500,55423
7,1448810546,4330,1171,242.6038055419922000,78.0111083984375000,15.5398197174072270,31.4093303680419920,32.6792793273925800,35.1099205017089840,2.4306340217590330,874.4443969726562000,949.1594238281250000,395.7878112792969000,26606
7,1448810567,4330,1171,242.4053955078125000,77.9804534912109400,15.5596704483032230,31.4095096588134770,32.6794586181640600,35.1085395812988300,2.4290769100189210,874.4086914062500000,948.8732910156250000,395.1507873535156000,33415
7,1448810598,4330,1171,242.3695983886718800,78.0021514892578100,15.5795402526855470,31.4017105102539060,32.6717605590820300,35.1008415222168000,2.4290769100189210,874.1354980468750000,948.9727783203125000,394.5127868652344000,44507
7,1448810619,4330,1171,242.1782989501953000,77.9928588867187500,15.6108503341674800,31.3965492248535160,32.6666603088378900,35.0956611633300800,2.4290010929107666,874.0042114257812000,948.5800781250000000,393.5079040527344000,59357
7,1448810641,4330,1171,241.8383026123047000,77.9499206542968800,15.6507902145385740,31.3942203521728500,32.6643714904785160,35.0942001342773440,2.4298319816589355,873.9013061523438000,948.3209838867188000,392.2254943847656000,13499
7,1448810670,4330,1171,240.6598968505859400,77.6767196655273400,15.7150201797485350,31.4208908081054700,32.6906814575195300,35.1225204467773440,2.4318389892578125,874.7282714843750000,948.0322875976562000,390.1628112792969000,32611
7,1448810691,4330,1171,240.0122070312500000,77.4843521118164000,15.7250995635986330,31.4478206634521500,32.7172508239746100,35.1508789062500000,2.4336240291595460,875.6397705078125000,947.4494018554688000,389.8389892578125000,33505
7,1448810722,4330,1171,239.6784057617187500,77.4088211059570300,15.7445898056030270,31.4547996520996100,32.7241401672363300,35.1578598022460940,2.4337229728698730,875.8989257812500000,947.4025268554688000,389.2130126953125000,25706
7,1448810743,4330,1171,239.4971923828125000,77.3750534057617200,15.7595796585083000,31.4567298889160160,32.7260513305664060,35.1618690490722660,2.4358220100402830,876.0046997070312000,946.9016113281250000,388.7314147949219000,43841
7,1448810765,4330,1171,239.1376037597656200,77.2925109863281200,15.7799701690673830,31.4648208618164060,32.7340316772460940,35.1724205017089840,2.4383931159973145,876.2366943359375000,946.6572875976562000,388.0761108398437500,25482
7,1448810794,4330,1171,238.4010009765625000,77.1179962158203100,15.8186101913452150,31.4826107025146500,32.7515792846679700,35.1905097961425800,2.4389340877532960,876.8709716796875000,946.7258300781250000,386.8348083496094000,17611
7,1448810815,4330,1171,237.8686981201172000,77.0168533325195300,15.8618698120117190,31.4886093139648440,32.7574996948242200,35.1974792480468750,2.4399800300598145,877.1309814453125000,946.0554809570312000,385.4443969726562500,45934
7,1448810878,4330,1171,236.1725006103515600,76.6038665771484400,15.9454298019409180,31.5330791473388670,32.8013801574707000,35.2433204650878900,2.4419479370117188,878.5740966796875000,946.0593261718750000,382.7583007812500000,16102
7,1448810922,4330,1171,235.7485046386718800,76.5919418334961000,16.0225791931152340,31.5180301666259770,32.7865295410156250,35.2307701110839840,2.4442369937896730,877.9132080078125000,945.3748168945312000,380.2774047851562500,44426
7,1448810944,4330,1171,235.9546966552734400,76.6876678466796900,16.0402107238769530,31.4996604919433600,32.7683982849121100,35.2145500183105500,2.4461519718170166,877.2147216796875000,944.5521850585938000,379.7101135253906000,6777
7,1448810967,4330,1171,236.1842041015625000,76.7924880981445300,16.0587501525878900,31.4796009063720700,32.7486114501953100,35.1985206604003900,2.4499130249023438,876.4332885742188000,944.0189819335938000,379.1138000488281000,35263
7,1448810988,4330,1171,236.3491973876953000,76.9064331054687500,16.0956802368164060,31.4543094635009770,32.7236595153808600,35.1761589050293000,2.4525070190429688,875.4003295898438000,943.6135253906250000,377.9258117675781000,39507
7,1448811009,4330,1171,236.4037017822265600,77.0027084350586000,16.1437797546386720,31.4294605255126950,32.6991386413574200,35.1535110473632800,2.4543690681457520,874.4022827148438000,943.0916748046875000,376.3782043457031000,38814
7,1448811030,4330,1171,236.4580993652343800,77.0803527832031200,16.1804103851318360,31.4097690582275400,32.6797218322753900,35.1386299133300800,2.4589080810546875,873.6945190429688000,942.5404052734375000,375.1994018554687500,64298
7,1448811052,4330,1171,236.4055938720703000,77.1286010742187500,16.2204208374023440,31.3937492370605470,32.6639099121093750,35.1231498718261700,2.4592359066009520,872.8530273437500000,941.9929199218750000,373.9114990234375000,36842